Weather History for Wahoo, NE

Change the Weather History Date:

Friday, October 19, 2012

  Actual Average Record
Temperature  
Mean Temperature 44 °F -  
Max Temperature 50 °F 62 °F 86 °F (1963)
Min Temperature 37 °F 34 °F 10 °F (1972)
Degree Days  
Heating Degree Days 21    
Moisture  
Dew Point 39 °F    
Average Humidity 80    
Maximum Humidity 93    
Minimum Humidity 67    
Precipitation  
Precipitation 0.00 in - - ()
Sea Level Pressure  
Sea Level Pressure 29.76 in    
Wind  
Wind Speed 19 mph (NW)    
Max Wind Speed 29 mph    
Max Gust Speed 38 mph    
Visibility 10 miles    
Events Rain    
Averages and records for this station are not official NWS values.
T = Trace of Precipitation, MM = Missing Value Source: NWS Daily Summary

Daily Weather History Graph

Daily Weather History Graph

Search for Another Location

Airport:

Trip Planner

Search our weather history database for the weather conditions in past years. The results will help you decide how hot, cold, wet, or windy it might be!

Date:

Astronomy

Oct. 19, 2012 Rise Set
Actual Time 7:43 AM CDT 6:38 PM CDT
Civil Twilight 7:15 AM CDT 7:06 PM CDT
Nautical Twilight 6:43 AM CDT 7:38 PM CDT
Astronomical Twilight 6:11 AM CDT 8:10 PM CDT
Moon 12:29 PM CDT (10/19) 10:16 PM CDT (10/19)
Length of Visible Light 11h 51m
Length of Day
10h 55m
Waxing Crescent, 24% of the Moon is Illuminated
Oct 19
Waxing Crescent
Oct 21
First Quarter
Oct 29
Full
Nov 6
Last Quarter
Nov 13
New

Hourly Weather History & Observations

Time (CDT) Temp. Windchill Dew Point Humidity Pressure Visibility Wind Dir Wind Speed Gust Speed Precip Events Conditions
1:35 AM 44.2 °F 34.8 °F 40.3 °F 86% 29.64 in 10.0 mi NW 26.5 mph 32.2 mph N/A   Drizzle
1:55 AM 44.6 °F 36.1 °F 40.3 °F 85% 29.65 in 10.0 mi NW 21.9 mph 35.7 mph N/A Rain Rain
2:15 AM 44.6 °F 34.9 °F 39.9 °F 84% 29.65 in 10.0 mi NW 28.8 mph 38.0 mph N/A   Light Drizzle
2:35 AM 44.2 °F 35.0 °F 40.1 °F 85% 29.65 in 10.0 mi NW 25.3 mph 33.4 mph N/A   Drizzle
2:55 AM 44.6 °F 35.7 °F 40.1 °F 84% 29.65 in 10.0 mi NW 24.2 mph 34.5 mph N/A   Drizzle
3:15 AM 44.6 °F 36.4 °F 40.3 °F 85% 29.66 in 10.0 mi NW 20.7 mph 31.1 mph N/A   Drizzle
3:35 AM 44.6 °F 36.4 °F 39.9 °F 84% 29.66 in 10.0 mi NW 20.7 mph 33.4 mph N/A   Light Drizzle
3:55 AM 44.2 °F 35.7 °F 40.1 °F 85% 29.66 in 10.0 mi NW 21.9 mph 31.1 mph N/A   Drizzle
4:15 AM 44.4 °F 35.7 °F 39.4 °F 82% 29.66 in 10.0 mi NW 23.0 mph 34.5 mph N/A   Light Drizzle
4:35 AM 44.1 °F 35.2 °F 39.6 °F 84% 29.67 in 10.0 mi NW 23.0 mph 32.2 mph N/A   Light Drizzle
4:55 AM 43.7 °F 34.7 °F 39.2 °F 84% 29.67 in 10.0 mi NW 23.0 mph 36.8 mph N/A Rain Light Rain
5:15 AM 43.7 °F 34.7 °F 39.4 °F 85% 29.68 in 10.0 mi NW 23.0 mph 32.2 mph N/A Rain Light Rain
5:35 AM 43.7 °F 34.5 °F 39.2 °F 84% 29.68 in 10.0 mi NW 24.2 mph 34.5 mph N/A   Light Drizzle
5:55 AM 43.9 °F 35.7 °F 38.7 °F 82% 29.69 in 10.0 mi NW 19.6 mph 34.5 mph N/A   Overcast
6:15 AM 43.9 °F 34.3 °F 38.7 °F 82% 29.70 in 10.0 mi NNW 26.5 mph 38.0 mph N/A   Overcast
6:35 AM 44.1 °F 35.2 °F 38.7 °F 81% 29.70 in 10.0 mi NNW 23.0 mph 34.5 mph N/A   Overcast
6:55 AM 43.7 °F 35.0 °F 39.2 °F 84% 29.71 in 10.0 mi NW 21.9 mph 29.9 mph N/A   Overcast
7:15 AM 43.7 °F 35.2 °F 38.7 °F 82% 29.71 in 10.0 mi NW 20.7 mph 34.5 mph N/A   Overcast
7:35 AM 43.7 °F 34.7 °F 38.7 °F 82% 29.72 in 10.0 mi NW 23.0 mph 33.4 mph N/A   Overcast
7:55 AM 43.7 °F 34.5 °F 38.3 °F 81% 29.73 in 10.0 mi NW 24.2 mph 32.2 mph N/A   Overcast
8:15 AM 43.7 °F 35.7 °F 38.5 °F 82% 29.73 in 10.0 mi NNW 18.4 mph 29.9 mph N/A   Overcast
8:35 AM 43.7 °F 35.4 °F 38.3 °F 81% 29.74 in 10.0 mi NW 19.6 mph 29.9 mph N/A   Overcast
8:55 AM 43.7 °F 34.3 °F 38.5 °F 82% 29.75 in 10.0 mi NW 25.3 mph 31.1 mph N/A   Overcast
9:15 AM 43.7 °F 34.3 °F 38.7 °F 82% 29.76 in 10.0 mi NW 25.3 mph 34.5 mph N/A   Overcast
9:35 AM 44.1 °F 35.7 °F 38.8 °F 82% 29.77 in 10.0 mi NW 20.7 mph 27.6 mph N/A   Overcast
9:55 AM 44.2 °F 35.2 °F 38.5 °F 80% 29.77 in 10.0 mi NNW 24.2 mph 34.5 mph N/A   Overcast
10:15 AM 44.6 °F 36.1 °F 38.7 °F 80% 29.78 in 10.0 mi NW 21.9 mph 26.5 mph N/A   Overcast
10:35 AM 44.6 °F 35.9 °F 38.8 °F 80% 29.79 in 10.0 mi NW 23.0 mph 29.9 mph N/A   Overcast
10:55 AM 44.8 °F 37.4 °F 38.8 °F 80% 29.80 in 10.0 mi NW 17.3 mph 28.8 mph N/A   Overcast
11:15 AM 45.1 °F 36.6 °F 38.5 °F 77% 29.80 in 10.0 mi NNW 23.0 mph 32.2 mph N/A   Overcast
11:35 AM 45.5 °F 38.6 °F 39.2 °F 79% 29.80 in 10.0 mi NNW 16.1 mph 24.2 mph N/A   Overcast
11:55 AM 45.5 °F 37.6 °F 38.7 °F 77% 29.80 in 10.0 mi NNW 20.7 mph 28.8 mph N/A   Overcast
12:15 PM 45.9 °F 37.4 °F 38.8 °F 76% 29.80 in 10.0 mi NNW 24.2 mph 29.9 mph N/A   Overcast
12:35 PM 45.7 °F 38.3 °F 38.5 °F 76% 29.81 in 10.0 mi NNW 18.4 mph 29.9 mph N/A   Overcast
12:55 PM 46.0 °F 37.8 °F 38.5 °F 75% 29.81 in 10.0 mi NW 23.0 mph 31.1 mph N/A   Overcast
1:15 PM 46.4 °F 39.2 °F 38.5 °F 74% 29.81 in 10.0 mi NNW 18.4 mph 21.9 mph N/A   Overcast
1:35 PM 47.1 °F - 39.0 °F 73% 29.80 in 10.0 mi NNW 20.7 mph 26.5 mph N/A   Overcast
1:55 PM 48.4 °F - 39.4 °F 71% 29.80 in 10.0 mi NNW 15.0 mph 24.2 mph N/A   Overcast
2:15 PM 48.7 °F - 39.4 °F 70% 29.80 in 10.0 mi NNW 19.6 mph 24.2 mph N/A   Overcast
2:35 PM 49.8 °F - 39.4 °F 67% 29.79 in 10.0 mi NNW 16.1 mph 26.5 mph N/A   Overcast
2:55 PM 50.0 °F - 39.9 °F 68% 29.79 in 10.0 mi NNW 18.4 mph 23.0 mph N/A   Overcast
3:15 PM 49.3 °F - 39.7 °F 70% 29.79 in 10.0 mi NW 13.8 mph 20.7 mph N/A   Overcast
3:35 PM 49.5 °F - 39.9 °F 70% 29.79 in 10.0 mi NNW 11.5 mph 17.3 mph N/A   Overcast
3:55 PM 49.1 °F - 39.7 °F 70% 29.80 in 10.0 mi NNW 12.7 mph 18.4 mph N/A   Overcast
4:15 PM 49.3 °F - 40.1 °F 71% 29.80 in 10.0 mi NNW 12.7 mph - N/A   Overcast
4:35 PM 49.8 °F - 40.5 °F 70% 29.79 in 10.0 mi NNW 12.7 mph 17.3 mph N/A   Overcast
4:55 PM 49.6 °F - 40.1 °F 70% 29.79 in 10.0 mi NNW 13.8 mph - N/A   Overcast
5:15 PM 49.8 °F - 39.2 °F 67% 29.79 in 10.0 mi NNW 11.5 mph 18.4 mph N/A   Overcast
5:35 PM 49.6 °F - 39.2 °F 67% 29.79 in 10.0 mi NNW 12.7 mph 17.3 mph N/A   Overcast
5:55 PM 48.7 °F - 39.4 °F 70% 29.80 in 10.0 mi NNW 6.9 mph - N/A   Overcast
6:15 PM 48.7 °F - 39.4 °F 70% 29.80 in 10.0 mi NNW 6.9 mph - N/A   Overcast
6:35 PM 48.4 °F - 39.7 °F 72% 29.80 in 10.0 mi NNW 5.8 mph - N/A   Overcast
6:55 PM 48.2 °F - 40.1 °F 74% 29.81 in 10.0 mi NNW 5.8 mph - N/A   Overcast
7:15 PM 47.7 °F - 40.5 °F 76% 29.81 in 10.0 mi NNW 4.6 mph - N/A   Overcast
7:35 PM 46.4 °F 43.5 °F 40.1 °F 79% 29.81 in 10.0 mi North 5.8 mph - N/A   Overcast
7:55 PM 44.1 °F 40.1 °F 38.7 °F 81% 29.81 in 10.0 mi North 6.9 mph - N/A   Scattered Clouds
8:15 PM 44.4 °F 42.0 °F 38.8 °F 81% 29.81 in 10.0 mi NW 4.6 mph - N/A   Scattered Clouds
8:35 PM 44.6 °F 41.4 °F 39.4 °F 82% 29.82 in 10.0 mi NNW 5.8 mph - N/A   Mostly Cloudy
8:55 PM 44.6 °F - 40.1 °F 84% 29.82 in 10.0 mi Calm Calm - N/A   Overcast
9:15 PM 43.9 °F - 40.3 °F 87% 29.82 in 10.0 mi Calm Calm - N/A   Mostly Cloudy
9:35 PM 44.4 °F - 39.9 °F 84% 29.82 in 10.0 mi Calm Calm - N/A   Scattered Clouds
9:55 PM 43.0 °F - 39.4 °F 87% 29.82 in 10.0 mi Calm Calm - N/A   Clear
10:15 PM 42.6 °F - 39.7 °F 90% 29.82 in 10.0 mi Calm Calm - N/A   Clear
10:35 PM 42.1 °F - 39.6 °F 91% 29.82 in 10.0 mi Calm Calm - N/A   Clear
10:55 PM 39.6 °F - 37.8 °F 93% 29.82 in 7.0 mi Calm Calm - N/A   Clear
11:15 PM 41.2 °F - 39.2 °F 93% 29.82 in 10.0 mi Calm Calm - N/A   Clear
11:35 PM 38.7 °F - 36.3 °F 91% 29.81 in 10.0 mi Calm Calm - N/A   Clear
11:55 PM 37.4 °F - 35.4 °F 93% 29.81 in 10.0 mi Calm Calm - N/A   Clear